GLD1204 SBSP-SBCX

Flight info

Callsign GLD1204
Flight time 1h 26m
Altitude 38000
Route UBSOD UZ38 VUKMO
Aircraft A20N/M-SDE2E3FGHIRWXY/LB1

Departure

Time 2026-05-08 00:50
Airport Congonhas–Deputado Freitas Nobre Airport (SBSP)

Arrival

Time 2026-05-08 02:16
Airport Hugo Cantergiani Regional Airport (SBCX)
Time Latitude Longitude Altitude Speed Heading
2026-05-08 00:27 -23.62783 -46.65779 2600 ft 0 kts 237°
2026-05-08 00:38 -23.62777 -46.65769 2600 ft 2 kts 232°
2026-05-08 00:38 -23.62766 -46.65756 2600 ft 2 kts 220°
2026-05-08 00:38 -23.62752 -46.65747 2601 ft 2 kts 169°
2026-05-08 00:38 -23.62740 -46.65753 2601 ft 1 kts 146°
2026-05-08 00:39 -23.62739 -46.65753 2601 ft 0 kts 146°
2026-05-08 00:41 -23.62748 -46.65745 2601 ft 3 kts 139°
2026-05-08 00:42 -23.62763 -46.65722 2601 ft 4 kts 118°
2026-05-08 00:42 -23.62776 -46.65688 2602 ft 5 kts 115°
2026-05-08 00:42 -23.62802 -46.65658 2603 ft 6 kts 141°
2026-05-08 00:42 -23.62846 -46.65627 2603 ft 9 kts 149°
2026-05-08 00:43 -23.62907 -46.65588 2603 ft 11 kts 149°
2026-05-08 00:43 -23.62980 -46.65539 2603 ft 13 kts 148°
2026-05-08 00:43 -23.63075 -46.65507 2602 ft 16 kts 155°
2026-05-08 00:43 -23.63171 -46.65439 2602 ft 17 kts 147°
2026-05-08 00:44 -23.63281 -46.65368 2602 ft 19 kts 151°
2026-05-08 00:44 -23.63389 -46.65291 2602 ft 6 kts 144°
2026-05-08 00:44 -23.63397 -46.65284 2602 ft 0 kts 144°
2026-05-08 00:47 -23.63409 -46.65275 2601 ft 7 kts 145°
2026-05-08 00:48 -23.63466 -46.65237 2601 ft 0 kts 149°
2026-05-08 00:48 -23.63467 -46.65236 2601 ft 2 kts 149°
2026-05-08 00:48 -23.63505 -46.65209 2600 ft 12 kts 146°
2026-05-08 00:48 -23.63497 -46.65157 2599 ft 10 kts 43°
2026-05-08 00:49 -23.63438 -46.65125 2600 ft 0 kts
2026-05-08 00:49 -23.63437 -46.65125 2600 ft 0 kts 359°
2026-05-08 00:49 -23.63436 -46.65125 2600 ft 0 kts 357°
2026-05-08 00:49 -23.63298 -46.65215 2608 ft 61 kts 326°
2026-05-08 00:50 -23.62722 -46.65615 2607 ft 132 kts 326°
2026-05-08 00:50 -23.61809 -46.66249 2888 ft 160 kts 329°
2026-05-08 00:50 -23.60915 -46.66881 3799 ft 151 kts 329°
2026-05-08 00:50 -23.60011 -46.67532 4326 ft 162 kts 329°
2026-05-08 00:51 -23.59043 -46.68229 4899 ft 172 kts 325°
2026-05-08 00:51 -23.58265 -46.69293 5441 ft 189 kts 300°
2026-05-08 00:51 -23.57542 -46.70560 5668 ft 207 kts 323°
2026-05-08 00:51 -23.56223 -46.71296 5597 ft 220 kts 338°
2026-05-08 00:52 -23.54824 -46.71976 5550 ft 220 kts 335°
2026-05-08 00:52 -23.53489 -46.72753 5278 ft 223 kts 323°
2026-05-08 00:52 -23.52550 -46.74200 5058 ft 257 kts 293°
2026-05-08 00:52 -23.52357 -46.76187 4977 ft 271 kts 267°
2026-05-08 00:53 -23.52536 -46.78220 4965 ft 268 kts 274°
2026-05-08 00:53 -23.52784 -46.80242 4962 ft 275 kts 256°
2026-05-08 00:53 -23.53450 -46.82219 5119 ft 280 kts 254°
2026-05-08 00:53 -23.54252 -46.84163 5862 ft 285 kts 239°
2026-05-08 00:54 -23.55708 -46.85630 6914 ft 291 kts 213°
2026-05-08 00:54 -23.57652 -46.86330 7707 ft 303 kts 187°
2026-05-08 00:54 -23.59768 -46.86121 8511 ft 310 kts 166°
2026-05-08 00:54 -23.61849 -46.85463 9358 ft 313 kts 171°
2026-05-08 00:55 -23.64012 -46.85473 10156 ft 312 kts 195°
2026-05-08 00:55 -23.66049 -46.86252 10878 ft 312 kts 206°
2026-05-08 00:55 -23.68026 -46.87260 11598 ft 316 kts 209°
2026-05-08 00:55 -23.70004 -46.88338 12314 ft 320 kts 209°
2026-05-08 00:56 -23.72010 -46.89433 13036 ft 324 kts 208°
2026-05-08 00:56 -23.74042 -46.90524 13714 ft 328 kts 207°
2026-05-08 00:56 -23.76115 -46.91621 14344 ft 332 kts 207°
2026-05-08 00:56 -23.78269 -46.92658 14696 ft 347 kts 204°
2026-05-08 00:57 -23.80533 -46.93683 14867 ft 366 kts 204°
2026-05-08 00:57 -23.82945 -46.94769 15052 ft 383 kts 204°
2026-05-08 00:57 -23.85428 -46.95889 15561 ft 388 kts 204°
2026-05-08 00:57 -23.87930 -46.97019 16169 ft 391 kts 204°
2026-05-08 00:58 -23.90455 -46.98162 16751 ft 394 kts 204°
2026-05-08 00:58 -23.92987 -46.99310 17343 ft 397 kts 204°
2026-05-08 00:58 -23.95556 -47.00475 17922 ft 400 kts 204°
2026-05-08 00:58 -23.98141 -47.01649 18445 ft 403 kts 204°
2026-05-08 00:59 -24.00731 -47.02825 19020 ft 403 kts 204°
2026-05-08 00:59 -24.03324 -47.04003 19576 ft 404 kts 205°
2026-05-08 00:59 -24.05924 -47.05185 20113 ft 405 kts 205°
2026-05-08 00:59 -24.08530 -47.06370 20652 ft 406 kts 205°
2026-05-08 01:00 -24.11142 -47.07559 21204 ft 407 kts 205°
2026-05-08 01:00 -24.13763 -47.08752 21743 ft 408 kts 205°
2026-05-08 01:00 -24.16393 -47.09950 22280 ft 410 kts 205°
2026-05-08 01:00 -24.19031 -47.11153 22790 ft 411 kts 205°
2026-05-08 01:01 -24.21677 -47.12360 23280 ft 413 kts 205°
2026-05-08 01:01 -24.24332 -47.13571 23770 ft 414 kts 205°
2026-05-08 01:01 -24.26897 -47.14937 24162 ft 414 kts 212°
2026-05-08 01:01 -24.29342 -47.16605 24567 ft 415 kts 215°
2026-05-08 01:02 -24.31784 -47.18310 24970 ft 417 kts 215°
2026-05-08 01:02 -24.34242 -47.20016 25338 ft 420 kts 215°
2026-05-08 01:02 -24.36718 -47.21733 25754 ft 422 kts 215°
2026-05-08 01:02 -24.39203 -47.23456 26108 ft 424 kts 215°
2026-05-08 01:03 -24.41706 -47.25194 26478 ft 426 kts 215°
2026-05-08 01:03 -24.44214 -47.26939 26851 ft 428 kts 215°
2026-05-08 01:03 -24.46736 -47.28694 27221 ft 430 kts 215°
2026-05-08 01:03 -24.49274 -47.30461 27576 ft 432 kts 215°
2026-05-08 01:04 -24.51822 -47.32236 27929 ft 435 kts 215°
2026-05-08 01:04 -24.54380 -47.34019 28272 ft 437 kts 215°
2026-05-08 01:04 -24.56957 -47.35816 28632 ft 439 kts 215°
2026-05-08 01:04 -24.59546 -47.37622 28953 ft 442 kts 215°
2026-05-08 01:05 -24.62118 -47.39417 29270 ft 444 kts 215°
2026-05-08 01:05 -24.64734 -47.41244 29591 ft 446 kts 215°
2026-05-08 01:05 -24.67357 -47.43077 29903 ft 448 kts 215°
2026-05-08 01:05 -24.69995 -47.44920 30216 ft 449 kts 215°
2026-05-08 01:06 -24.72637 -47.46767 30537 ft 450 kts 215°
2026-05-08 01:06 -24.75286 -47.48620 30856 ft 451 kts 215°
2026-05-08 01:06 -24.77930 -47.50471 31206 ft 451 kts 216°
2026-05-08 01:06 -24.80574 -47.52322 31619 ft 449 kts 216°
2026-05-08 01:07 -24.82313 -47.53541 31912 ft 447 kts 216°
2026-05-08 01:07 -24.84932 -47.55376 32349 ft 444 kts 216°
2026-05-08 01:07 -24.87530 -47.57197 32771 ft 442 kts 216°
2026-05-08 01:07 -24.90115 -47.59012 33171 ft 440 kts 216°
2026-05-08 01:08 -24.92688 -47.60818 33565 ft 438 kts 217°
2026-05-08 01:08 -24.95247 -47.62616 33853 ft 435 kts 217°
2026-05-08 01:08 -24.97798 -47.64408 33916 ft 434 kts 217°
2026-05-08 01:09 -25.02879 -47.67984 33916 ft 434 kts 217°
2026-05-08 01:09 -25.07972 -47.71571 33913 ft 434 kts 217°
2026-05-08 01:10 -25.13071 -47.75165 33909 ft 435 kts 217°
2026-05-08 01:10 -25.15593 -47.76943 34167 ft 433 kts 217°
2026-05-08 01:10 -25.18079 -47.78690 35082 ft 412 kts 218°
2026-05-08 01:10 -25.20427 -47.80333 36272 ft 386 kts 219°
2026-05-08 01:11 -25.22651 -47.81893 37068 ft 372 kts 219°
2026-05-08 01:11 -25.24807 -47.83415 37489 ft 366 kts 220°
2026-05-08 01:11 -25.26948 -47.84938 37607 ft 367 kts 220°
2026-05-08 01:12 -25.31247 -47.87994 37808 ft 368 kts 220°
2026-05-08 01:12 -25.33406 -47.89525 37909 ft 369 kts 220°
2026-05-08 01:12 -25.35571 -47.91062 37911 ft 372 kts 220°
2026-05-08 01:13 -25.39965 -47.94181 37907 ft 378 kts 220°
2026-05-08 01:13 -25.44438 -47.97357 37907 ft 385 kts 220°
2026-05-08 01:14 -25.48985 -48.00586 37909 ft 392 kts 220°
2026-05-08 01:14 -25.53613 -48.03876 37907 ft 399 kts 220°
2026-05-08 01:15 -25.58318 -48.07225 37904 ft 406 kts 220°
2026-05-08 01:15 -25.62839 -48.10445 37897 ft 409 kts 220°
2026-05-08 01:16 -25.67623 -48.13849 37888 ft 408 kts 220°
2026-05-08 01:16 -25.72366 -48.17237 37888 ft 408 kts 220°
2026-05-08 01:17 -25.77141 -48.20653 37898 ft 408 kts 220°
2026-05-08 01:17 -25.81917 -48.24074 37889 ft 409 kts 220°
2026-05-08 01:18 -25.86687 -48.27494 37894 ft 409 kts 220°
2026-05-08 01:18 -25.91472 -48.30929 37886 ft 410 kts 220°
2026-05-08 01:19 -25.96270 -48.34376 37893 ft 410 kts 220°
2026-05-08 01:19 -26.00271 -48.37254 37891 ft 410 kts 220°
2026-05-08 01:20 -26.05066 -48.40706 37886 ft 410 kts 220°
2026-05-08 01:20 -26.09857 -48.44159 37889 ft 411 kts 220°
2026-05-08 01:21 -26.14653 -48.47618 37890 ft 411 kts 220°
2026-05-08 01:21 -26.19447 -48.51079 37890 ft 411 kts 220°
2026-05-08 01:22 -26.24243 -48.54545 37888 ft 411 kts 220°
2026-05-08 01:22 -26.29041 -48.58016 37885 ft 411 kts 220°
2026-05-08 01:23 -26.33836 -48.61488 37882 ft 411 kts 220°
2026-05-08 01:23 -26.38598 -48.64941 37885 ft 411 kts 220°
2026-05-08 01:24 -26.43388 -48.68416 37883 ft 411 kts 220°
2026-05-08 01:24 -26.48183 -48.71900 37879 ft 411 kts 220°
2026-05-08 01:25 -26.53009 -48.75411 37881 ft 417 kts 220°
2026-05-08 01:25 -26.57904 -48.78977 37876 ft 423 kts 220°
2026-05-08 01:26 -26.62849 -48.82578 37876 ft 424 kts 220°
2026-05-08 01:26 -26.67791 -48.86179 37867 ft 424 kts 220°
2026-05-08 01:27 -26.72750 -48.89800 37873 ft 425 kts 220°
2026-05-08 01:27 -26.77698 -48.93417 37868 ft 425 kts 220°
2026-05-08 01:28 -26.82618 -48.97016 37876 ft 425 kts 220°
2026-05-08 01:28 -26.87571 -49.00642 37864 ft 425 kts 220°
2026-05-08 01:29 -26.92522 -49.04274 37866 ft 425 kts 220°
2026-05-08 01:29 -26.97476 -49.07911 37871 ft 426 kts 219°
2026-05-08 01:30 -27.02440 -49.11559 37875 ft 427 kts 219°
2026-05-08 01:30 -27.07402 -49.15209 37876 ft 427 kts 219°
2026-05-08 01:31 -27.10633 -49.17587 37872 ft 428 kts 219°
2026-05-08 01:31 -27.15619 -49.21261 37884 ft 429 kts 219°
2026-05-08 01:32 -27.20615 -49.24946 37886 ft 430 kts 219°
2026-05-08 01:32 -27.25592 -49.28622 37896 ft 431 kts 219°
2026-05-08 01:33 -27.30616 -49.32336 37901 ft 432 kts 219°
2026-05-08 01:33 -27.35652 -49.36062 37881 ft 434 kts 218°
2026-05-08 01:34 -27.40704 -49.39804 37900 ft 435 kts 219°
2026-05-08 01:34 -27.45744 -49.43541 37710 ft 432 kts 219°
2026-05-08 01:34 -27.48250 -49.45400 37137 ft 432 kts 219°
2026-05-08 01:35 -27.50760 -49.47264 36542 ft 430 kts 219°
2026-05-08 01:35 -27.53243 -49.49106 36061 ft 425 kts 219°
2026-05-08 01:35 -27.55715 -49.50944 35337 ft 427 kts 219°
2026-05-08 01:35 -27.58194 -49.52789 34705 ft 427 kts 220°
2026-05-08 01:36 -27.60635 -49.54604 34190 ft 424 kts 220°
2026-05-08 01:36 -27.63086 -49.56426 33665 ft 420 kts 220°
2026-05-08 01:36 -27.65522 -49.58241 33070 ft 418 kts 220°
2026-05-08 01:36 -27.67937 -49.60042 32503 ft 415 kts 220°
2026-05-08 01:37 -27.70346 -49.61839 31939 ft 413 kts 220°
2026-05-08 01:37 -27.72738 -49.63625 31389 ft 411 kts 220°
2026-05-08 01:37 -27.75120 -49.65404 30857 ft 410 kts 220°
2026-05-08 01:37 -27.77494 -49.67177 30314 ft 408 kts 220°
2026-05-08 01:38 -27.79856 -49.68943 29759 ft 406 kts 220°
2026-05-08 01:38 -27.82208 -49.70702 29180 ft 404 kts 220°
2026-05-08 01:38 -27.84541 -49.72448 28622 ft 402 kts 220°
2026-05-08 01:38 -27.86863 -49.74186 28064 ft 400 kts 220°
2026-05-08 01:39 -27.89177 -49.75919 27516 ft 398 kts 221°
2026-05-08 01:39 -27.91484 -49.77648 26960 ft 397 kts 221°
2026-05-08 01:39 -27.93751 -49.79347 26478 ft 395 kts 221°
2026-05-08 01:39 -27.95835 -49.81276 25949 ft 381 kts 236°
2026-05-08 01:40 -27.97500 -49.83573 25476 ft 375 kts 239°
2026-05-08 01:40 -27.99123 -49.85857 25238 ft 371 kts 239°
2026-05-08 01:40 -28.00745 -49.88144 25079 ft 376 kts 239°
2026-05-08 01:40 -28.02387 -49.90460 24921 ft 377 kts 239°
2026-05-08 01:41 -28.03898 -49.92586 24776 ft 375 kts 239°
2026-05-08 01:41 -28.05489 -49.94821 24621 ft 373 kts 239°
2026-05-08 01:41 -28.07114 -49.97110 24461 ft 373 kts 239°
2026-05-08 01:41 -28.08741 -49.99405 24307 ft 374 kts 239°
2026-05-08 01:42 -28.10372 -50.01706 24144 ft 375 kts 239°
2026-05-08 01:42 -28.12002 -50.04007 23992 ft 374 kts 239°
2026-05-08 01:42 -28.13627 -50.06299 23836 ft 373 kts 239°
2026-05-08 01:42 -28.15248 -50.08587 23682 ft 373 kts 240°
2026-05-08 01:43 -28.16869 -50.10879 23530 ft 373 kts 240°
2026-05-08 01:43 -28.18491 -50.13173 23361 ft 372 kts 240°
2026-05-08 01:43 -28.20107 -50.15460 23174 ft 372 kts 240°
2026-05-08 01:43 -28.21720 -50.17743 22961 ft 369 kts 240°
2026-05-08 01:44 -28.23302 -50.19982 22554 ft 368 kts 240°
2026-05-08 01:44 -28.24917 -50.22271 22083 ft 365 kts 240°
2026-05-08 01:44 -28.26481 -50.24487 21557 ft 364 kts 240°
2026-05-08 01:44 -28.28060 -50.26729 21047 ft 363 kts 240°
2026-05-08 01:45 -28.29633 -50.28962 20592 ft 361 kts 239°
2026-05-08 01:45 -28.31200 -50.31190 20068 ft 361 kts 239°
2026-05-08 01:45 -28.32761 -50.33405 19642 ft 358 kts 239°
2026-05-08 01:45 -28.34309 -50.35606 19198 ft 356 kts 239°
2026-05-08 01:46 -28.35859 -50.37816 18522 ft 362 kts 239°
2026-05-08 01:46 -28.37451 -50.40096 17568 ft 374 kts 239°
2026-05-08 01:46 -28.39091 -50.42442 16669 ft 383 kts 239°
2026-05-08 01:46 -28.40750 -50.44802 16076 ft 381 kts 238°
2026-05-08 01:47 -28.42399 -50.47141 15576 ft 378 kts 239°
2026-05-08 01:47 -28.44035 -50.49466 15023 ft 376 kts 239°
2026-05-08 01:47 -28.45657 -50.51777 14556 ft 373 kts 239°
2026-05-08 01:48 -28.48861 -50.56352 13591 ft 366 kts 239°
2026-05-08 01:48 -28.50432 -50.58620 13063 ft 363 kts 239°
2026-05-08 01:48 -28.51988 -50.60856 12576 ft 359 kts 239°
2026-05-08 01:48 -28.53527 -50.63071 12094 ft 355 kts 239°
2026-05-08 01:49 -28.55045 -50.65270 11609 ft 351 kts 239°
2026-05-08 01:49 -28.56524 -50.67419 11138 ft 348 kts 239°
2026-05-08 01:49 -28.58007 -50.69583 10679 ft 344 kts 239°
2026-05-08 01:49 -28.59469 -50.71729 10207 ft 342 kts 239°
2026-05-08 01:50 -28.60903 -50.73848 9952 ft 335 kts 240°
2026-05-08 01:50 -28.62278 -50.75993 9955 ft 337 kts 242°
2026-05-08 01:50 -28.63645 -50.78169 9996 ft 338 kts 242°
2026-05-08 01:50 -28.64986 -50.80295 9995 ft 322 kts 241°
2026-05-08 01:51 -28.66261 -50.82308 9984 ft 305 kts 242°
2026-05-08 01:51 -28.67472 -50.84169 9989 ft 281 kts 240°
2026-05-08 01:51 -28.68751 -50.85770 9899 ft 268 kts 234°
2026-05-08 01:51 -28.70059 -50.87259 9337 ft 266 kts 235°
2026-05-08 01:52 -28.71334 -50.88824 8687 ft 269 kts 239°
2026-05-08 01:52 -28.72210 -50.90607 8213 ft 250 kts 264°
2026-05-08 01:52 -28.72606 -50.92512 7579 ft 246 kts 267°
2026-05-08 01:52 -28.72971 -50.94409 6998 ft 246 kts 266°
2026-05-08 01:53 -28.73355 -50.96306 6527 ft 245 kts 267°
2026-05-08 01:53 -28.73753 -50.98148 6206 ft 240 kts 266°
2026-05-08 01:53 -28.74162 -51.00009 5996 ft 243 kts 267°
2026-05-08 01:53 -28.74575 -51.01860 5974 ft 242 kts 266°
2026-05-08 01:54 -28.74998 -51.03755 5976 ft 246 kts 266°
2026-05-08 01:54 -28.75424 -51.05627 5978 ft 243 kts 266°
2026-05-08 01:54 -28.75851 -51.07485 5970 ft 242 kts 266°
2026-05-08 01:54 -28.76277 -51.09340 5979 ft 242 kts 266°
2026-05-08 01:55 -28.76704 -51.11206 5975 ft 243 kts 266°
2026-05-08 01:55 -28.77130 -51.13064 5962 ft 243 kts 265°
2026-05-08 01:55 -28.77575 -51.14260 5943 ft 255 kts 248°
2026-05-08 01:55 -28.78832 -51.15794 5717 ft 271 kts 232°
2026-05-08 01:56 -28.80255 -51.17215 5439 ft 273 kts 232°
2026-05-08 01:56 -28.81669 -51.18625 5293 ft 266 kts 232°
2026-05-08 01:56 -28.83037 -51.19975 5183 ft 255 kts 232°
2026-05-08 01:56 -28.84372 -51.21266 5023 ft 248 kts 232°
2026-05-08 01:57 -28.85681 -51.22529 4993 ft 242 kts 232°
2026-05-08 01:57 -28.86938 -51.23713 4990 ft 228 kts 232°
2026-05-08 01:57 -28.88207 -51.24867 5001 ft 241 kts 223°
2026-05-08 01:57 -28.89815 -51.25565 4993 ft 254 kts 203°
2026-05-08 01:58 -28.91540 -51.26044 4996 ft 258 kts 202°
2026-05-08 01:58 -28.93266 -51.26523 5046 ft 249 kts 202°
2026-05-08 01:58 -28.94934 -51.26984 4678 ft 247 kts 202°
2026-05-08 01:58 -28.96557 -51.27561 4307 ft 240 kts 209°
2026-05-08 01:59 -28.98060 -51.28245 4203 ft 228 kts 212°
2026-05-08 01:59 -28.99559 -51.28964 4176 ft 236 kts 211°
2026-05-08 01:59 -29.01063 -51.29670 4177 ft 231 kts 210°
2026-05-08 01:59 -29.02538 -51.30355 4171 ft 234 kts 211°
2026-05-08 02:00 -29.04034 -51.31034 4176 ft 228 kts 212°
2026-05-08 02:00 -29.05494 -51.31689 4156 ft 226 kts 212°
2026-05-08 02:00 -29.07063 -51.32170 4133 ft 244 kts 187°
2026-05-08 02:00 -29.08697 -51.31714 4080 ft 240 kts 148°
2026-05-08 02:01 -29.09930 -51.30462 4090 ft 239 kts 125°
2026-05-08 02:01 -29.10950 -51.29039 4060 ft 221 kts 122°
2026-05-08 02:01 -29.11869 -51.27769 4110 ft 199 kts 122°
2026-05-08 02:01 -29.12754 -51.26631 4110 ft 184 kts 124°
2026-05-08 02:02 -29.13640 -51.25549 4087 ft 189 kts 127°
2026-05-08 02:02 -29.14576 -51.24466 3951 ft 191 kts 127°
2026-05-08 02:02 -29.15513 -51.23423 3638 ft 187 kts 126°
2026-05-08 02:02 -29.16434 -51.22392 3412 ft 183 kts 128°
2026-05-08 02:03 -29.17339 -51.21386 3157 ft 178 kts 129°
2026-05-08 02:03 -29.18225 -51.20415 2837 ft 176 kts 129°
2026-05-08 02:03 -29.19098 -51.19463 2569 ft 165 kts 132°
2026-05-08 02:03 -29.20111 -51.18676 2895 ft 186 kts 141°
2026-05-08 02:04 -29.21118 -51.17699 3352 ft 197 kts 129°
2026-05-08 02:04 -29.22182 -51.16569 3588 ft 221 kts 129°
2026-05-08 02:04 -29.23359 -51.15313 3958 ft 245 kts 130°
2026-05-08 02:04 -29.24626 -51.13934 4074 ft 248 kts 130°
2026-05-08 02:05 -29.25858 -51.12596 4100 ft 243 kts 130°
2026-05-08 02:05 -29.26895 -51.11088 4107 ft 240 kts 109°
2026-05-08 02:05 -29.27637 -51.09421 4053 ft 233 kts 107°
2026-05-08 02:05 -29.28370 -51.07719 4136 ft 246 kts 107°
2026-05-08 02:06 -29.29112 -51.05997 4063 ft 239 kts 108°
2026-05-08 02:06 -29.29830 -51.04192 4110 ft 255 kts 97°
2026-05-08 02:06 -29.30133 -51.02275 4092 ft 235 kts 80°
2026-05-08 02:06 -29.30102 -51.00470 4141 ft 223 kts 75°
2026-05-08 02:07 -29.30017 -50.98682 4067 ft 223 kts 75°
2026-05-08 02:07 -29.29728 -50.96989 4209 ft 215 kts 57°
2026-05-08 02:07 -29.29423 -50.95265 4060 ft 229 kts 82°
2026-05-08 02:07 -29.29934 -50.93527 4110 ft 242 kts 116°
2026-05-08 02:08 -29.31206 -50.92185 4111 ft 256 kts 150°
2026-05-08 02:08 -29.32912 -50.91681 4108 ft 252 kts 185°
2026-05-08 02:08 -29.34538 -50.92166 4110 ft 235 kts 221°
2026-05-08 02:08 -29.35668 -50.93396 4091 ft 220 kts 246°
2026-05-08 02:09 -29.36483 -50.94831 4080 ft 207 kts 252°
2026-05-08 02:09 -29.37162 -50.96259 4092 ft 200 kts 267°
2026-05-08 02:09 -29.37178 -50.97691 4091 ft 171 kts 298°
2026-05-08 02:09 -29.36592 -50.98817 4067 ft 159 kts 317°
2026-05-08 02:10 -29.35873 -50.99784 4071 ft 159 kts 317°
2026-05-08 02:10 -29.35166 -51.00755 4086 ft 153 kts 316°
2026-05-08 02:10 -29.34540 -51.01646 4082 ft 139 kts 316°
2026-05-08 02:10 -29.33919 -51.02524 4095 ft 146 kts 317°
2026-05-08 02:11 -29.33306 -51.03388 4094 ft 138 kts 317°
2026-05-08 02:11 -29.32684 -51.04256 4092 ft 142 kts 316°
2026-05-08 02:11 -29.32043 -51.05099 4148 ft 144 kts 321°
2026-05-08 02:11 -29.31325 -51.05892 4089 ft 140 kts 321°
2026-05-08 02:12 -29.30649 -51.06647 4120 ft 130 kts 321°
2026-05-08 02:12 -29.30024 -51.07349 4098 ft 121 kts 322°
2026-05-08 02:12 -29.29446 -51.07996 4087 ft 113 kts 323°
2026-05-08 02:12 -29.28877 -51.08618 4071 ft 112 kts 323°
2026-05-08 02:13 -29.28297 -51.09248 4098 ft 117 kts 323°
2026-05-08 02:13 -29.27721 -51.09888 4106 ft 117 kts 323°
2026-05-08 02:13 -29.27145 -51.10527 4103 ft 115 kts 323°
2026-05-08 02:13 -29.26564 -51.11166 4065 ft 117 kts 323°
2026-05-08 02:14 -29.25974 -51.11814 3897 ft 118 kts 324°
2026-05-08 02:14 -29.25368 -51.12487 3778 ft 122 kts 323°
2026-05-08 02:14 -29.24772 -51.13151 3587 ft 118 kts 323°
2026-05-08 02:14 -29.24179 -51.13813 3460 ft 120 kts 322°
2026-05-08 02:15 -29.23588 -51.14475 3309 ft 121 kts 323°
2026-05-08 02:15 -29.22949 -51.15167 3100 ft 136 kts 325°
2026-05-08 02:15 -29.22270 -51.15915 2863 ft 122 kts 318°
2026-05-08 02:15 -29.21679 -51.16619 2796 ft 129 kts 325°
2026-05-08 02:16 -29.21034 -51.17324 2596 ft 128 kts 321°
2026-05-08 02:16 -29.20486 -51.17917 2509 ft 122 kts 321°
2026-05-08 02:16 -29.19867 -51.18588 2459 ft 103 kts 316°
2026-05-08 02:16 -29.19578 -51.18921 2453 ft 17 kts 314°
2026-05-08 02:17 -29.19565 -51.18936 2453 ft 4 kts 315°
2026-05-08 02:17 -29.19526 -51.18980 2453 ft 11 kts 315°
2026-05-08 02:17 -29.19456 -51.19059 2449 ft 17 kts 319°
2026-05-08 02:17 -29.19357 -51.19160 2452 ft 20 kts 313°
2026-05-08 02:18 -29.19254 -51.19276 2454 ft 21 kts 317°
2026-05-08 02:18 -29.19139 -51.19387 2457 ft 21 kts 320°
2026-05-08 02:18 -29.19115 -51.19448 2456 ft 0 kts 216°
2026-05-08 02:18 -29.19124 -51.19448 2457 ft 3 kts 174°
2026-05-08 02:19 -29.19138 -51.19417 2459 ft 10 kts 107°
2026-05-08 02:19 -29.19190 -51.19341 2455 ft 15 kts 141°
2026-05-08 02:19 -29.19277 -51.19253 2451 ft 18 kts 138°
2026-05-08 02:19 -29.19374 -51.19140 2452 ft 22 kts 134°
2026-05-08 02:20 -29.19488 -51.19010 2452 ft 24 kts 139°
2026-05-08 02:20 -29.19601 -51.18886 2454 ft 10 kts 135°
2026-05-08 02:20 -29.19594 -51.18813 2451 ft 10 kts 56°
2026-05-08 02:20 -29.19533 -51.18756 2450 ft 13 kts 39°
2026-05-08 02:21 -29.19522 -51.18744 2453 ft 0 kts 45°